,Coso Junction,Coso Junction
,PM10_1HR,PM10_1HR
,UG/M3,UG/M3
Date,Value,Null Code
01-Jan-2023 00:00,0.6,
01-Jan-2023 01:00,2.2,
01-Jan-2023 02:00,3.6,
01-Jan-2023 03:00,0.2,
01-Jan-2023 04:00,2.4,
01-Jan-2023 05:00,3.5,
01-Jan-2023 06:00,2.6,
01-Jan-2023 07:00,1.3,
01-Jan-2023 08:00,2.5,
01-Jan-2023 09:00,4.6,
01-Jan-2023 10:00,14.3,
01-Jan-2023 11:00,36.2,
01-Jan-2023 12:00,52.6,
01-Jan-2023 13:00,69.8,
01-Jan-2023 14:00,126.1,
01-Jan-2023 15:00,151.7,
01-Jan-2023 16:00,42.4,
01-Jan-2023 17:00,70.1,
01-Jan-2023 18:00,153.5,
01-Jan-2023 19:00,56.7,
01-Jan-2023 20:00,113.8,
01-Jan-2023 21:00,88.8,
01-Jan-2023 22:00,53.8,
01-Jan-2023 23:00,40.7,
02-Jan-2023 00:00,18.5,
02-Jan-2023 01:00,14.5,
02-Jan-2023 02:00,8.1,
02-Jan-2023 03:00,6.4,
02-Jan-2023 04:00,5,
02-Jan-2023 05:00,6.9,
02-Jan-2023 06:00,5.6,
02-Jan-2023 07:00,2.8,
02-Jan-2023 08:00,2.4,
02-Jan-2023 09:00,2.6,
02-Jan-2023 10:00,3,
02-Jan-2023 11:00,0.9,
02-Jan-2023 12:00,5.9,
02-Jan-2023 13:00,7.7,
02-Jan-2023 14:00,6,
02-Jan-2023 15:00,5.3,
02-Jan-2023 16:00,9.3,
02-Jan-2023 17:00,8,
02-Jan-2023 18:00,6.9,
02-Jan-2023 19:00,7.3,
02-Jan-2023 20:00,4.4,
02-Jan-2023 21:00,6.5,
02-Jan-2023 22:00,5.8,
02-Jan-2023 23:00,4,
03-Jan-2023 00:00,6.4,
03-Jan-2023 01:00,5.8,
03-Jan-2023 02:00,4.1,
03-Jan-2023 03:00,4.3,
03-Jan-2023 04:00,5.1,
03-Jan-2023 05:00,5.5,
03-Jan-2023 06:00,3.8,
03-Jan-2023 07:00,6.4,
03-Jan-2023 08:00,3.6,
03-Jan-2023 09:00,10.2,
03-Jan-2023 10:00,3.8,
03-Jan-2023 11:00,3.3,
03-Jan-2023 12:00,1.9,
03-Jan-2023 13:00,4.6,
03-Jan-2023 14:00,5.3,
03-Jan-2023 15:00,6.6,
03-Jan-2023 16:00,6.5,
03-Jan-2023 17:00,9.3,
03-Jan-2023 18:00,5.5,
03-Jan-2023 19:00,5.4,
03-Jan-2023 20:00,4.2,
03-Jan-2023 21:00,5.1,
03-Jan-2023 22:00,3.6,
03-Jan-2023 23:00,5.9,
04-Jan-2023 00:00,4.1,
04-Jan-2023 01:00,3.7,
04-Jan-2023 02:00,4.2,
04-Jan-2023 03:00,2.2,
04-Jan-2023 04:00,3.4,
04-Jan-2023 05:00,6.4,
04-Jan-2023 06:00,6.3,
04-Jan-2023 07:00,5.1,
04-Jan-2023 08:00,5.8,
04-Jan-2023 09:00,6.3,
04-Jan-2023 10:00,3.8,
04-Jan-2023 11:00,7.6,
04-Jan-2023 12:00,6.4,
04-Jan-2023 13:00,8.5,
04-Jan-2023 14:00,10.6,
04-Jan-2023 15:00,10.6,
04-Jan-2023 16:00,8.7,
04-Jan-2023 17:00,9.8,
04-Jan-2023 18:00,8.7,
04-Jan-2023 19:00,8.7,
04-Jan-2023 20:00,8.9,
04-Jan-2023 21:00,8.4,
04-Jan-2023 22:00,8.6,
04-Jan-2023 23:00,7.9,
05-Jan-2023 00:00,8.3,
05-Jan-2023 01:00,9.9,
05-Jan-2023 02:00,7.1,
05-Jan-2023 03:00,5.6,
05-Jan-2023 04:00,6.7,
05-Jan-2023 05:00,4.7,
05-Jan-2023 06:00,4.4,
05-Jan-2023 07:00,4,
05-Jan-2023 08:00,7,
05-Jan-2023 09:00,3.6,
05-Jan-2023 10:00,3.5,
05-Jan-2023 11:00,1.1,
05-Jan-2023 12:00,0,
05-Jan-2023 13:00,6.4,
05-Jan-2023 14:00,0,
05-Jan-2023 15:00,2.3,
05-Jan-2023 16:00,5.2,
05-Jan-2023 17:00,1.6,
05-Jan-2023 18:00,-0.9,
05-Jan-2023 19:00,5.4,
05-Jan-2023 20:00,8.1,
05-Jan-2023 21:00,4,
05-Jan-2023 22:00,1.6,
05-Jan-2023 23:00,2,
06-Jan-2023 00:00,2.8,
06-Jan-2023 01:00,7.2,
06-Jan-2023 02:00,4.9,
06-Jan-2023 03:00,5.6,
06-Jan-2023 04:00,4.8,
06-Jan-2023 05:00,4.9,
06-Jan-2023 06:00,5.1,
06-Jan-2023 07:00,5.6,
06-Jan-2023 08:00,3.1,
06-Jan-2023 09:00,4.6,
06-Jan-2023 10:00,0.5,
06-Jan-2023 11:00,0.7,
06-Jan-2023 12:00,5.2,
06-Jan-2023 13:00,1.7,
06-Jan-2023 14:00,1,
06-Jan-2023 15:00,-0.1,
06-Jan-2023 16:00,11.9,
06-Jan-2023 17:00,5.7,
06-Jan-2023 18:00,5,
06-Jan-2023 19:00,4.7,
06-Jan-2023 20:00,3.5,
06-Jan-2023 21:00,4.2,
06-Jan-2023 22:00,4.6,
06-Jan-2023 23:00,2.9,
07-Jan-2023 00:00,1.8,
07-Jan-2023 01:00,3.5,
07-Jan-2023 02:00,2.3,
07-Jan-2023 03:00,3.8,
07-Jan-2023 04:00,2.9,
07-Jan-2023 05:00,5,
07-Jan-2023 06:00,4.8,
07-Jan-2023 07:00,3.7,
07-Jan-2023 08:00,4.5,
07-Jan-2023 09:00,4.7,
07-Jan-2023 10:00,3.7,
07-Jan-2023 11:00,2.9,
07-Jan-2023 12:00,1.6,
07-Jan-2023 13:00,1.7,
07-Jan-2023 14:00,4.7,
07-Jan-2023 15:00,3.2,
07-Jan-2023 16:00,5.6,
07-Jan-2023 17:00,8.7,
07-Jan-2023 18:00,6.3,
07-Jan-2023 19:00,4.2,
07-Jan-2023 20:00,4,
07-Jan-2023 21:00,4.1,
07-Jan-2023 22:00,3.6,
07-Jan-2023 23:00,2.7,
08-Jan-2023 00:00,3.5,
08-Jan-2023 01:00,3.8,
08-Jan-2023 02:00,2.9,
08-Jan-2023 03:00,4.8,
08-Jan-2023 04:00,3.5,
08-Jan-2023 05:00,8,
08-Jan-2023 06:00,4.3,
08-Jan-2023 07:00,4.7,
08-Jan-2023 08:00,8.1,
08-Jan-2023 09:00,4.3,
08-Jan-2023 10:00,2.4,
08-Jan-2023 11:00,3,
08-Jan-2023 12:00,2.6,
08-Jan-2023 13:00,5.4,
08-Jan-2023 14:00,4.8,
08-Jan-2023 15:00,6.2,
08-Jan-2023 16:00,4.9,
08-Jan-2023 17:00,8.7,
08-Jan-2023 18:00,7.1,
08-Jan-2023 19:00,5.1,
08-Jan-2023 20:00,5.1,
08-Jan-2023 21:00,5.7,
08-Jan-2023 22:00,4.6,
08-Jan-2023 23:00,6,
09-Jan-2023 00:00,3.3,
09-Jan-2023 01:00,5,
09-Jan-2023 02:00,5.3,
09-Jan-2023 03:00,4.8,
09-Jan-2023 04:00,5.1,
09-Jan-2023 05:00,6.4,
09-Jan-2023 06:00,5,
09-Jan-2023 07:00,4.6,
09-Jan-2023 08:00,4.2,
09-Jan-2023 09:00,3.1,
09-Jan-2023 10:00,2.1,
09-Jan-2023 11:00,1,
09-Jan-2023 12:00,1.7,
09-Jan-2023 13:00,4.2,
09-Jan-2023 14:00,3.3,
09-Jan-2023 15:00,4.7,
09-Jan-2023 16:00,4,
09-Jan-2023 17:00,2.1,
09-Jan-2023 18:00,4,
09-Jan-2023 19:00,3.2,
09-Jan-2023 20:00,2,
09-Jan-2023 21:00,3.9,
09-Jan-2023 22:00,1.3,
09-Jan-2023 23:00,0.5,
10-Jan-2023 00:00,0,
10-Jan-2023 01:00,5,
10-Jan-2023 02:00,6.1,
10-Jan-2023 03:00,2.6,
10-Jan-2023 04:00,2.3,
10-Jan-2023 05:00,1.9,
10-Jan-2023 06:00,0.9,
10-Jan-2023 07:00,5.8,
10-Jan-2023 08:00,5.5,
10-Jan-2023 09:00,1.1,
10-Jan-2023 10:00,-1.1,
10-Jan-2023 11:00,-2.9,
10-Jan-2023 12:00,-3.6,
10-Jan-2023 13:00,9.7,
10-Jan-2023 14:00,7,
10-Jan-2023 15:00,2.1,
10-Jan-2023 16:00,-1,
10-Jan-2023 17:00,4.3,
10-Jan-2023 18:00,5.4,
10-Jan-2023 19:00,9.4,
10-Jan-2023 20:00,3.8,
10-Jan-2023 21:00,3.2,
10-Jan-2023 22:00,3.9,
10-Jan-2023 23:00,2.7,
11-Jan-2023 00:00,2.7,
11-Jan-2023 01:00,4.6,
11-Jan-2023 02:00,5.5,
11-Jan-2023 03:00,4.4,
11-Jan-2023 04:00,4.6,
11-Jan-2023 05:00,5.2,
11-Jan-2023 06:00,5.2,
11-Jan-2023 07:00,3.8,
11-Jan-2023 08:00,4,
11-Jan-2023 09:00,,BA
11-Jan-2023 10:00,,BA
11-Jan-2023 11:00,,BA
11-Jan-2023 12:00,-4.3,
11-Jan-2023 13:00,-1.1,
11-Jan-2023 14:00,-1.2,
11-Jan-2023 15:00,1.2,
11-Jan-2023 16:00,3.5,
11-Jan-2023 17:00,3.8,
11-Jan-2023 18:00,2.2,
11-Jan-2023 19:00,2.8,
11-Jan-2023 20:00,3.1,
11-Jan-2023 21:00,1.7,
11-Jan-2023 22:00,1.4,
11-Jan-2023 23:00,1.2,
12-Jan-2023 00:00,0.9,
12-Jan-2023 01:00,2.1,
12-Jan-2023 02:00,1.7,
12-Jan-2023 03:00,1.9,
12-Jan-2023 04:00,2.8,
12-Jan-2023 05:00,2.4,
12-Jan-2023 06:00,2.8,
12-Jan-2023 07:00,2.6,
12-Jan-2023 08:00,3.6,
12-Jan-2023 09:00,3.9,
12-Jan-2023 10:00,1.5,
12-Jan-2023 11:00,-0.5,
12-Jan-2023 12:00,-0.1,
12-Jan-2023 13:00,0.9,
12-Jan-2023 14:00,2.9,
12-Jan-2023 15:00,3.3,
12-Jan-2023 16:00,5.7,
12-Jan-2023 17:00,6.3,
12-Jan-2023 18:00,5.5,
12-Jan-2023 19:00,4,
12-Jan-2023 20:00,4.1,
12-Jan-2023 21:00,3.1,
12-Jan-2023 22:00,2.2,
12-Jan-2023 23:00,0.9,
13-Jan-2023 00:00,2.3,
13-Jan-2023 01:00,2.7,
13-Jan-2023 02:00,1.2,
13-Jan-2023 03:00,2,
13-Jan-2023 04:00,2.2,
13-Jan-2023 05:00,4,
13-Jan-2023 06:00,5,
13-Jan-2023 07:00,4.2,
13-Jan-2023 08:00,2.5,
13-Jan-2023 09:00,7.5,
13-Jan-2023 10:00,1.7,
13-Jan-2023 11:00,2.3,
13-Jan-2023 12:00,1.3,
13-Jan-2023 13:00,2.7,
13-Jan-2023 14:00,3.6,
13-Jan-2023 15:00,4.4,
13-Jan-2023 16:00,3.5,
13-Jan-2023 17:00,5.4,
13-Jan-2023 18:00,4.4,
13-Jan-2023 19:00,2.8,
13-Jan-2023 20:00,3.7,
13-Jan-2023 21:00,3.5,
13-Jan-2023 22:00,2.8,
13-Jan-2023 23:00,1.8,
14-Jan-2023 00:00,2.6,
14-Jan-2023 01:00,4.3,
14-Jan-2023 02:00,4.4,
14-Jan-2023 03:00,4,
14-Jan-2023 04:00,3.2,
14-Jan-2023 05:00,7.6,
14-Jan-2023 06:00,6.4,
14-Jan-2023 07:00,4.4,
14-Jan-2023 08:00,4.9,
14-Jan-2023 09:00,3.2,
14-Jan-2023 10:00,4.1,
14-Jan-2023 11:00,1.8,
14-Jan-2023 12:00,2.1,
14-Jan-2023 13:00,2.1,
14-Jan-2023 14:00,4,
14-Jan-2023 15:00,3.3,
14-Jan-2023 16:00,2.1,
14-Jan-2023 17:00,1.9,
14-Jan-2023 18:00,1.4,
14-Jan-2023 19:00,0.3,
14-Jan-2023 20:00,2.3,
14-Jan-2023 21:00,3.3,
14-Jan-2023 22:00,0.8,
14-Jan-2023 23:00,0.4,
15-Jan-2023 00:00,1.1,
15-Jan-2023 01:00,3,
15-Jan-2023 02:00,2.3,
15-Jan-2023 03:00,1.9,
15-Jan-2023 04:00,1.5,
15-Jan-2023 05:00,3.4,
15-Jan-2023 06:00,3.1,
15-Jan-2023 07:00,2.1,
15-Jan-2023 08:00,3.8,
15-Jan-2023 09:00,2.9,
15-Jan-2023 10:00,3.5,
15-Jan-2023 11:00,1.3,
15-Jan-2023 12:00,1.3,
15-Jan-2023 13:00,3.5,
15-Jan-2023 14:00,1.7,
15-Jan-2023 15:00,1.5,
15-Jan-2023 16:00,3.1,
15-Jan-2023 17:00,2.5,
15-Jan-2023 18:00,4,
15-Jan-2023 19:00,2.5,
15-Jan-2023 20:00,4.3,
15-Jan-2023 21:00,4.6,
15-Jan-2023 22:00,2.3,
15-Jan-2023 23:00,2.2,
16-Jan-2023 00:00,1.7,
16-Jan-2023 01:00,1.6,
16-Jan-2023 02:00,2.8,
16-Jan-2023 03:00,2,
16-Jan-2023 04:00,0.5,
16-Jan-2023 05:00,3,
16-Jan-2023 06:00,0.5,
16-Jan-2023 07:00,3.1,
16-Jan-2023 08:00,1.9,
16-Jan-2023 09:00,3.7,
16-Jan-2023 10:00,2,
16-Jan-2023 11:00,4.5,
16-Jan-2023 12:00,4.7,
16-Jan-2023 13:00,2.3,
16-Jan-2023 14:00,2.2,
16-Jan-2023 15:00,1.7,
16-Jan-2023 16:00,0.9,
16-Jan-2023 17:00,3.1,
16-Jan-2023 18:00,2.8,
16-Jan-2023 19:00,5.9,
16-Jan-2023 20:00,3.9,
16-Jan-2023 21:00,4.2,
16-Jan-2023 22:00,2.7,
16-Jan-2023 23:00,2.8,
17-Jan-2023 00:00,1.8,
17-Jan-2023 01:00,3,
17-Jan-2023 02:00,4.2,
17-Jan-2023 03:00,2.4,
17-Jan-2023 04:00,2.7,
17-Jan-2023 05:00,5.1,
17-Jan-2023 06:00,3.3,
17-Jan-2023 07:00,5,
17-Jan-2023 08:00,4.3,
17-Jan-2023 09:00,5.5,
17-Jan-2023 10:00,3.1,
17-Jan-2023 11:00,3.5,
17-Jan-2023 12:00,4.6,
17-Jan-2023 13:00,5.5,
17-Jan-2023 14:00,7.6,
17-Jan-2023 15:00,5.9,
17-Jan-2023 16:00,10,
17-Jan-2023 17:00,6.9,
17-Jan-2023 18:00,5.4,
17-Jan-2023 19:00,4.8,
17-Jan-2023 20:00,5.8,
17-Jan-2023 21:00,5.1,
17-Jan-2023 22:00,4.8,
17-Jan-2023 23:00,3.3,
18-Jan-2023 00:00,3.7,
18-Jan-2023 01:00,4.1,
18-Jan-2023 02:00,3.3,
18-Jan-2023 03:00,3.4,
18-Jan-2023 04:00,3.6,
18-Jan-2023 05:00,5,
18-Jan-2023 06:00,5.4,
18-Jan-2023 07:00,2.4,
18-Jan-2023 08:00,2.5,
18-Jan-2023 09:00,3.3,
18-Jan-2023 10:00,1.9,
18-Jan-2023 11:00,0.4,
18-Jan-2023 12:00,-2.6,
18-Jan-2023 13:00,3.5,
18-Jan-2023 14:00,6,
18-Jan-2023 15:00,8.8,
18-Jan-2023 16:00,2.6,
18-Jan-2023 17:00,7.6,
18-Jan-2023 18:00,5.5,
18-Jan-2023 19:00,5.1,
18-Jan-2023 20:00,5,
18-Jan-2023 21:00,3.7,
18-Jan-2023 22:00,4.5,
18-Jan-2023 23:00,2.6,
19-Jan-2023 00:00,2.5,
19-Jan-2023 01:00,2.6,
19-Jan-2023 02:00,2.1,
19-Jan-2023 03:00,1.4,
19-Jan-2023 04:00,1.9,
19-Jan-2023 05:00,2.1,
19-Jan-2023 06:00,4.5,
19-Jan-2023 07:00,9.1,
19-Jan-2023 08:00,3.7,
19-Jan-2023 09:00,4.4,
19-Jan-2023 10:00,3.6,
19-Jan-2023 11:00,3.4,
19-Jan-2023 12:00,3.7,
19-Jan-2023 13:00,3.4,
19-Jan-2023 14:00,6.5,
19-Jan-2023 15:00,14.4,
19-Jan-2023 16:00,6.8,
19-Jan-2023 17:00,19.3,
19-Jan-2023 18:00,24.8,
19-Jan-2023 19:00,44.9,
19-Jan-2023 20:00,148.9,
19-Jan-2023 21:00,24.5,
19-Jan-2023 22:00,41.8,
19-Jan-2023 23:00,16.9,
20-Jan-2023 00:00,45.7,
20-Jan-2023 01:00,39.9,
20-Jan-2023 02:00,50.5,
20-Jan-2023 03:00,27.4,
20-Jan-2023 04:00,15.9,
20-Jan-2023 05:00,10.9,
20-Jan-2023 06:00,15.7,
20-Jan-2023 07:00,11.8,
20-Jan-2023 08:00,10.1,
20-Jan-2023 09:00,7.3,
20-Jan-2023 10:00,9.2,
20-Jan-2023 11:00,6.6,
20-Jan-2023 12:00,7.6,
20-Jan-2023 13:00,6.6,
20-Jan-2023 14:00,5.5,
20-Jan-2023 15:00,5.2,
20-Jan-2023 16:00,9.6,
20-Jan-2023 17:00,6.4,
20-Jan-2023 18:00,6.3,
20-Jan-2023 19:00,3.9,
20-Jan-2023 20:00,2.2,
20-Jan-2023 21:00,5.2,
20-Jan-2023 22:00,6.1,
20-Jan-2023 23:00,4.6,
21-Jan-2023 00:00,3.1,
21-Jan-2023 01:00,3.8,
21-Jan-2023 02:00,2.5,
21-Jan-2023 03:00,3.4,
21-Jan-2023 04:00,3.6,
21-Jan-2023 05:00,4.4,
21-Jan-2023 06:00,3.8,
21-Jan-2023 07:00,5,
21-Jan-2023 08:00,2.8,
21-Jan-2023 09:00,3.4,
21-Jan-2023 10:00,1.8,
21-Jan-2023 11:00,0.9,
21-Jan-2023 12:00,-0.4,
21-Jan-2023 13:00,0.5,
21-Jan-2023 14:00,2,
21-Jan-2023 15:00,3.7,
21-Jan-2023 16:00,7.8,
21-Jan-2023 17:00,9.1,
21-Jan-2023 18:00,6.6,
21-Jan-2023 19:00,5.4,
21-Jan-2023 20:00,6.5,
21-Jan-2023 21:00,4.4,
21-Jan-2023 22:00,4,
21-Jan-2023 23:00,3.1,
22-Jan-2023 00:00,2.1,
22-Jan-2023 01:00,2.6,
22-Jan-2023 02:00,2.8,
22-Jan-2023 03:00,1.2,
22-Jan-2023 04:00,2,
22-Jan-2023 05:00,1.2,
22-Jan-2023 06:00,4.1,
22-Jan-2023 07:00,7.4,
22-Jan-2023 08:00,8.2,
22-Jan-2023 09:00,9.6,
22-Jan-2023 10:00,38.9,
22-Jan-2023 11:00,17.2,
22-Jan-2023 12:00,14.1,
22-Jan-2023 13:00,25.1,
22-Jan-2023 14:00,21.2,
22-Jan-2023 15:00,22.4,
22-Jan-2023 16:00,33.8,
22-Jan-2023 17:00,130.2,
22-Jan-2023 18:00,77.1,
22-Jan-2023 19:00,42.4,
22-Jan-2023 20:00,126,
22-Jan-2023 21:00,67.6,
22-Jan-2023 22:00,32.4,
22-Jan-2023 23:00,36.6,
23-Jan-2023 00:00,70.8,
23-Jan-2023 01:00,125.2,
23-Jan-2023 02:00,69.9,
23-Jan-2023 03:00,107.6,
23-Jan-2023 04:00,88.1,
23-Jan-2023 05:00,62,
23-Jan-2023 06:00,224.1,
23-Jan-2023 07:00,163.7,
23-Jan-2023 08:00,125.8,
23-Jan-2023 09:00,149.5,
23-Jan-2023 10:00,71.7,
23-Jan-2023 11:00,55.1,
23-Jan-2023 12:00,124.7,
23-Jan-2023 13:00,55.4,
23-Jan-2023 14:00,70.2,
23-Jan-2023 15:00,56.1,
23-Jan-2023 16:00,46,
23-Jan-2023 17:00,15.4,
23-Jan-2023 18:00,16.5,
23-Jan-2023 19:00,18.7,
23-Jan-2023 20:00,11.4,
23-Jan-2023 21:00,8,
23-Jan-2023 22:00,7.2,
23-Jan-2023 23:00,5.4,
24-Jan-2023 00:00,4.1,
24-Jan-2023 01:00,5.9,
24-Jan-2023 02:00,5.5,
24-Jan-2023 03:00,2.5,
24-Jan-2023 04:00,5,
24-Jan-2023 05:00,5.5,
24-Jan-2023 06:00,5.8,
24-Jan-2023 07:00,4.1,
24-Jan-2023 08:00,4.3,
24-Jan-2023 09:00,4.9,
24-Jan-2023 10:00,2.2,
24-Jan-2023 11:00,0,
24-Jan-2023 12:00,3.4,
24-Jan-2023 13:00,5.5,
24-Jan-2023 14:00,3.3,
24-Jan-2023 15:00,5.6,
24-Jan-2023 16:00,11.2,
24-Jan-2023 17:00,11.9,
24-Jan-2023 18:00,12.5,
24-Jan-2023 19:00,8.7,
24-Jan-2023 20:00,6.2,
24-Jan-2023 21:00,2.4,
24-Jan-2023 22:00,3.2,
24-Jan-2023 23:00,4.8,
25-Jan-2023 00:00,4.1,
25-Jan-2023 01:00,4.5,
25-Jan-2023 02:00,2.8,
25-Jan-2023 03:00,5,
25-Jan-2023 04:00,4.1,
25-Jan-2023 05:00,3.8,
25-Jan-2023 06:00,4.1,
25-Jan-2023 07:00,6,
25-Jan-2023 08:00,5.4,
25-Jan-2023 09:00,,AX
25-Jan-2023 10:00,,AX
25-Jan-2023 11:00,,AX
25-Jan-2023 12:00,7.3,
25-Jan-2023 13:00,11.7,
25-Jan-2023 14:00,12.1,
25-Jan-2023 15:00,11.5,
25-Jan-2023 16:00,13.5,
25-Jan-2023 17:00,8.5,
25-Jan-2023 18:00,18.7,
25-Jan-2023 19:00,20.3,
25-Jan-2023 20:00,9.3,
25-Jan-2023 21:00,8.5,
25-Jan-2023 22:00,8.4,
25-Jan-2023 23:00,10.1,
26-Jan-2023 00:00,10.3,
26-Jan-2023 01:00,31.1,
26-Jan-2023 02:00,30.5,
26-Jan-2023 03:00,23.4,
26-Jan-2023 04:00,12.7,
26-Jan-2023 05:00,21.1,
26-Jan-2023 06:00,13.8,
26-Jan-2023 07:00,7.7,
26-Jan-2023 08:00,7.8,
26-Jan-2023 09:00,10.1,
26-Jan-2023 10:00,4.3,
26-Jan-2023 11:00,4.5,
26-Jan-2023 12:00,2.7,
26-Jan-2023 13:00,8.8,
26-Jan-2023 14:00,8.1,
26-Jan-2023 15:00,5.8,
26-Jan-2023 16:00,8.5,
26-Jan-2023 17:00,3.4,
26-Jan-2023 18:00,7.6,
26-Jan-2023 19:00,5.8,
26-Jan-2023 20:00,5.3,
26-Jan-2023 21:00,4.7,
26-Jan-2023 22:00,4.8,
26-Jan-2023 23:00,4.9,
27-Jan-2023 00:00,3.8,
27-Jan-2023 01:00,3.4,
27-Jan-2023 02:00,2.9,
27-Jan-2023 03:00,3.1,
27-Jan-2023 04:00,4.8,
27-Jan-2023 05:00,2.4,
27-Jan-2023 06:00,2.9,
27-Jan-2023 07:00,13.3,
27-Jan-2023 08:00,3.5,
27-Jan-2023 09:00,2.4,
27-Jan-2023 10:00,-1.6,
27-Jan-2023 11:00,2.6,
27-Jan-2023 12:00,-1.3,
27-Jan-2023 13:00,5,
27-Jan-2023 14:00,2.8,
27-Jan-2023 15:00,3.4,
27-Jan-2023 16:00,13.9,
27-Jan-2023 17:00,10.8,
27-Jan-2023 18:00,4.3,
27-Jan-2023 19:00,6.9,
27-Jan-2023 20:00,6.1,
27-Jan-2023 21:00,5.5,
27-Jan-2023 22:00,5.9,
27-Jan-2023 23:00,6.7,
28-Jan-2023 00:00,4.6,
28-Jan-2023 01:00,6.3,
28-Jan-2023 02:00,5.6,
28-Jan-2023 03:00,6.6,
28-Jan-2023 04:00,7.7,
28-Jan-2023 05:00,5.8,
28-Jan-2023 06:00,6,
28-Jan-2023 07:00,6,
28-Jan-2023 08:00,5.5,
28-Jan-2023 09:00,5.1,
28-Jan-2023 10:00,5.3,
28-Jan-2023 11:00,3.7,
28-Jan-2023 12:00,3.9,
28-Jan-2023 13:00,0.1,
28-Jan-2023 14:00,4.3,
28-Jan-2023 15:00,8.9,
28-Jan-2023 16:00,17,
28-Jan-2023 17:00,10,
28-Jan-2023 18:00,7.3,
28-Jan-2023 19:00,8.5,
28-Jan-2023 20:00,8.2,
28-Jan-2023 21:00,6.3,
28-Jan-2023 22:00,6,
28-Jan-2023 23:00,4.2,
29-Jan-2023 00:00,5.6,
29-Jan-2023 01:00,5.8,
29-Jan-2023 02:00,5.8,
29-Jan-2023 03:00,5.9,
29-Jan-2023 04:00,5.6,
29-Jan-2023 05:00,7.2,
29-Jan-2023 06:00,4.7,
29-Jan-2023 07:00,7.9,
29-Jan-2023 08:00,10.6,
29-Jan-2023 09:00,4.7,
29-Jan-2023 10:00,6.8,
29-Jan-2023 11:00,9.6,
29-Jan-2023 12:00,6.5,
29-Jan-2023 13:00,6.4,
29-Jan-2023 14:00,6,
29-Jan-2023 15:00,8.2,
29-Jan-2023 16:00,7.9,
29-Jan-2023 17:00,1.1,
29-Jan-2023 18:00,11,
29-Jan-2023 19:00,14.1,
29-Jan-2023 20:00,9.7,
29-Jan-2023 21:00,7.3,
29-Jan-2023 22:00,6.5,
29-Jan-2023 23:00,5.3,
30-Jan-2023 00:00,10.2,
30-Jan-2023 01:00,19.6,
30-Jan-2023 02:00,9,
30-Jan-2023 03:00,13,
30-Jan-2023 04:00,15.6,
30-Jan-2023 05:00,15.3,
30-Jan-2023 06:00,10.2,
30-Jan-2023 07:00,11.4,
30-Jan-2023 08:00,18.3,
30-Jan-2023 09:00,13.3,
30-Jan-2023 10:00,15.7,
30-Jan-2023 11:00,12.1,
30-Jan-2023 12:00,13.9,
30-Jan-2023 13:00,13.3,
30-Jan-2023 14:00,14.7,
30-Jan-2023 15:00,16,
30-Jan-2023 16:00,19.6,
30-Jan-2023 17:00,13.6,
30-Jan-2023 18:00,14.6,
30-Jan-2023 19:00,21.1,
30-Jan-2023 20:00,27.1,
30-Jan-2023 21:00,41.5,
30-Jan-2023 22:00,11.7,
30-Jan-2023 23:00,21.4,
31-Jan-2023 00:00,29,
31-Jan-2023 01:00,30,
31-Jan-2023 02:00,26.9,
31-Jan-2023 03:00,16.6,
31-Jan-2023 04:00,9.4,
31-Jan-2023 05:00,16.1,
31-Jan-2023 06:00,18.6,
31-Jan-2023 07:00,7.3,
31-Jan-2023 08:00,6.8,
31-Jan-2023 09:00,13.7,
31-Jan-2023 10:00,9.9,
31-Jan-2023 11:00,3.8,
31-Jan-2023 12:00,3.3,
31-Jan-2023 13:00,6,
31-Jan-2023 14:00,6.3,
31-Jan-2023 15:00,7.9,
31-Jan-2023 16:00,9.6,
31-Jan-2023 17:00,9.8,
31-Jan-2023 18:00,9,
31-Jan-2023 19:00,5.1,
31-Jan-2023 20:00,5.8,
31-Jan-2023 21:00,4.4,
31-Jan-2023 22:00,5.8,
31-Jan-2023 23:00,4.5,
